ONEWEB-0018, 45434

Orbit data source: Space-Track

ONEWEB-0018, 45434 is a payload satellite owned by One Web (UK) in LEO that was launched on Sat, 21 Mar 2020 UTC via a SOYUZ-2-1B launch vehicle from the Tyuratam Missile And Space Complex (TTMTR). Payload-class satellites include a variety of spacecraft equipped with specific instruments for various scientific and technological missions. These include communications satellites like Starlink; space stations such as the ISS; scientific satellites like the Hubble; Earth observation satellites from companies like Planet Labs, Umbra, and HawkEye 360; GPS; miniature CubeSats for education and research; and military/defense satellites.

Loading next visibility...
Identifier
45434, 2020-020L
Orbit
LEO
Country
Flag of UKUK
Related business
Manufacturer
One Web
Mission
Operational Commercial Communications
Bus & Motor
ARROW, Unknown motor
Mass
148 kg wet, ~140 kg dry
Launch date (UTC)
2020-03-21 (6 years ago)
Launch vehicle
SOYUZ-2-1B
Launch site
Tyuratam Missile And Space Complex (TTMTR)
Object type
Payload
Rocket body
Debris
Shape & HBR
Trap Box + 2 Pan, 6.7 m
Radar Cross Section
3.464 m², Large (>1 m²)

Expand to show TLE details & history
Last TLE update: 12 hours ago

TLE from 12 hours ago
0 ONEWEB-0018
1 45434U 20020L   25287.31342280  .00000506  00000-0  13907-2 0  9994
2 45434  87.8821  70.0278 0001591  96.5030 263.6279 13.11416997270409
Epoch: 2025-10-14T07:31Z
TLE epoch observation values (Epoch: 2025-10-14T07:31:19.729Z)
Latitude
-0.00006°
Longitude
-65.90805°
Altitude
1,220.706 km
Speed
7.244 km/s
True Right ascension
04h 40m 06s
True Declination
0° 00' 00"
Sunlit
Object was in full shadow at epoch
Visualization orbit readout
Latitude
Unknown
Longitude
Unknown
Altitude
Unknown
Speed
Unknown
Apparent Right ascension
Unknown
Apparent Declination
Unknown
Sunlit
N/A
Visualization observer readout
Local Sidereal Time
13:49:38
Azimuth
Unknown
Elevation
Unknown
Doppler factor
Unknown
Orbital elements
Apogee altitude
1,216.009 km
Perigee altitude
1,213.593 km
Semi-major axis
7,592.938 km
Eccentricity
0.00016
Inclination
87.8821°
RAAN
70.0278°
Arg. of periapsis
96.503°
True anomaly
263.60978°
Mean anomaly
263.6279°
Eccentric anomaly
263.61884°
Mean motion
3.28041 °/min
Orbital period
109.74 mins
BSTAR
0.0013907
Loading maneuver chart data...
Computing Atmospheric mass density...
Loading historical data...
Loading historical data...
Loading historical data...
Loading historical data...
Loading historical data...
Loading historical data...
Loading historical data...

Documentation

Showing up to 5 results
|